Theta_e
330 329 336 337 337 336 333 331 329 327 318 315 315 318 323 324 326 327 326 326 326 327 325 324 328 326 323 322 323 323 323 321 321
336 335 333 331 333 333 332 333 332 329 328 321 315 316 320 322 327 328 327 327 326 329 329 324 326 322 323 322 322 322 323 323 322
335 335 335 336 335 333 332 331 330 330 329 329 326 316 317 319 323 327 326 327 328 329 329 329 325 323 327 323 322 322 325 327 323
333 333 334 335 336 337 337 336 334 333 332 331 330 329 321 316 318 323 326 326 328 327 331 330 329 328 320 321 323 322 322 323 323
330 330 329 333 335 334 335 336 337 337 337 336 335 332 330 329 319 317 321 326 327 327 327 330 329 328 329 324 320 321 321 321 321
321 321 321 322 324 328 332 334 335 335 335 336 335 335 335 333 331 328 318 319 325 326 324 328 330 327 327 329 326 319 319 320 320
310 310 310 311 311 315 318 320 328 333 334 335 335 337 338 334 335 332 330 327 317 322 321 324 328 329 325 322 321 325 319 318 319
308 308 308 308 309 309 309 311 316 321 330 332 333 335 333 333 333 334 333 332 330 319 318 321 326 327 327 324 322 319 320 318 318
306 306 306 306 306 307 307 308 308 310 313 319 326 329 330 330 331 333 335 333 332 328 327 320 325 326 327 327 326 322 318 318 318
309 309 309 308 308 307 307 307 307 307 308 309 312 315 318 321 327 329 331 333 334 331 329 324 323 327 327 327 326 324 321 319 318
311 311 312 312 311 310 310 309 309 308 308 308 308 307 308 310 313 315 323 326 329 333 333 330 327 327 327 327 327 325 325 321 320
307 307 308 309 311 311 312 312 312 312 311 311 311 311 310 309 308 307 309 312 322 324 326 331 332 328 327 328 328 327 325 325 322
302 302 302 303 304 305 307 308 308 308 307 307 308 308 309 311 311 311 309 308 308 310 314 317 324 331 331 328 329 329 330 326 324
309 310 311 310 306 305 306 307 309 311 311 311 311 311 311 311 311 310 310 310 310 309 308 308 309 317 328 331 330 330 331 330 328
310 310 309 309 308 308 309 309 309 308 307 307 307 308 309 310 310 311 311 311 311 313 311 309 307 308 311 322 327 329 330 332 330
309 309 309 308 309 308 308 307 306 307 307 307 307 308 309 310 310 311 313 314 314 314 315 317 316 310 308 312 323 327 326 326 330
309 309 309 309 308 309 308 307 306 306 308 307 307 307 310 311 308 309 309 310 311 312 312 313 314 318 316 310 319 324 326 323 323
309 309 309 309 309 309 309 308 307 307 308 308 308 308 308 308 308 309 309 309 311 312 313 316 316 316 318 319 319 323 324 326 325
308 309 309 309 309 310 310 309 307 307 308 308 308 308 308 308 308 310 312 311 311 311 312 314 313 313 317 320 319 322 323 323 326
308 308 309 309 310 310 309 309 307 307 308 309 309 309 309 310 310 311 311 312 311 311 311 311 310 310 315 319 320 322 324 325 326
Wind_Speed
7 6 5 7 6 8 9 9 9 9 8 7 6 6 7 7 6 4 4 4 0 3 8 12 9 8 6 4 3 1 2 3 3
8 8 7 7 7 9 10 9 9 9 8 7 7 7 9 10 10 8 7 6 5 7 9 8 9 9 8 6 5 3 1 1 1
11 11 10 10 10 11 12 12 11 11 9 9 9 9 9 11 12 12 11 10 9 8 10 10 9 8 9 9 8 6 2 3 1
14 13 13 12 12 13 13 13 12 12 11 10 10 11 11 12 13 15 15 13 12 10 13 12 13 12 10 10 10 9 7 6 5
16 16 16 13 14 13 15 16 16 15 15 14 13 13 13 14 14 15 17 17 16 14 13 16 14 14 14 13 13 12 10 9 9
18 18 18 19 17 15 16 18 18 18 18 16 16 16 15 16 16 17 17 19 21 19 17 19 18 17 16 15 15 15 14 13 12
21 21 21 21 21 20 21 21 21 21 20 18 19 19 19 18 19 19 18 20 22 24 23 21 22 22 20 19 19 17 17 15 14
23 23 23 23 24 24 24 24 24 23 23 22 23 20 19 19 20 20 19 19 22 24 24 24 24 24 23 20 20 21 20 18 17
23 24 25 25 25 25 24 24 25 25 25 26 27 26 23 21 22 22 21 22 21 24 24 25 26 26 26 24 22 22 21 21 20
24 24 25 25 25 25 25 25 26 26 26 27 28 28 28 27 26 26 25 23 25 25 27 26 27 27 27 27 26 23 23 22 22
23 23 23 23 24 25 25 26 26 26 27 27 28 29 29 29 29 29 29 28 26 26 29 31 31 29 30 30 29 27 25 25 24
23 24 23 23 23 23 23 24 26 27 28 29 29 30 30 30 30 30 31 32 33 31 28 28 34 34 34 33 33 31 28 26 25
24 24 23 23 23 23 23 23 24 25 27 29 28 30 31 31 30 29 30 31 33 35 36 32 31 31 39 40 36 33 31 29 26
25 24 22 20 19 19 18 18 19 19 19 21 21 22 24 25 25 26 26 26 27 30 33 34 33 34 30 32 41 38 37 34 30
22 20 18 15 13 14 15 15 14 16 18 19 19 19 17 13 14 17 19 20 19 18 23 28 33 33 33 31 31 43 41 34 33
14 11 7 8 8 9 11 12 13 13 17 20 21 12 13 6 5 11 12 11 12 13 14 16 20 29 32 30 28 32 40 44 39
8 6 4 5 5 7 9 12 15 15 16 19 16 11 7 3 18 11 16 13 16 17 18 15 18 18 23 27 27 26 28 31 35
7 6 4 5 6 8 10 12 15 17 15 14 10 6 5 25 16 21 20 15 11 10 12 12 14 18 17 18 23 23 23 25 26
6 6 6 7 8 9 11 12 13 13 14 13 11 9 10 6 13 24 23 18 15 12 11 12 13 17 16 14 13 16 20 22 23
8 9 9 9 9 9 11 10 10 11 11 12 13 11 9 10 15 19 28 24 17 11 11 13 15 17 15 11 9 9 10 11 12
Wind_Direction
-0 357 315 322 315 331 340 346 346 346 347 340 327 288 274 284 299 282 303 288 301 309 294 281 292 300 298 293 278 212 85 99 105
338 337 331 320 313 312 319 324 327 327 327 325 315 296 273 274 278 272 296 299 274 283 309 299 286 289 285 286 302 297 254 79 75
320 319 320 313 308 311 312 313 313 314 313 313 310 301 288 278 268 265 277 281 275 267 286 299 301 283 274 279 284 291 268 247 316
310 309 307 305 305 302 302 305 304 303 303 301 299 298 291 282 276 267 272 274 269 273 261 271 294 292 284 279 271 275 272 266 278
300 298 293 295 292 289 294 295 293 293 294 295 296 293 287 286 280 275 268 268 268 268 269 263 278 284 282 284 279 274 269 267 269
292 291 289 290 285 279 276 282 285 285 282 283 290 291 288 283 279 277 273 269 266 266 262 259 259 272 274 275 275 274 271 268 268
287 287 287 287 287 285 283 280 276 279 280 279 279 283 284 284 283 274 272 273 269 265 264 261 258 260 265 271 270 268 267 264 264
289 288 287 287 287 286 284 283 283 279 277 275 274 278 280 280 274 279 273 272 268 266 265 259 259 260 260 264 269 264 265 261 260
291 291 290 289 286 285 284 283 281 280 279 278 277 277 276 278 274 269 271 266 267 260 268 262 257 261 261 259 262 266 261 260 258
295 293 292 291 290 289 286 284 283 281 279 277 276 276 276 274 274 270 270 269 263 257 257 260 254 258 263 260 258 262 261 259 258
299 297 295 294 291 289 289 289 287 285 283 280 278 277 275 274 272 271 269 268 270 265 260 256 253 250 257 259 258 260 260 258 255
300 297 295 293 292 292 292 290 289 288 287 285 283 280 278 276 275 274 273 269 265 267 268 265 259 254 252 255 256 256 257 259 258
299 297 295 294 294 295 295 294 293 293 292 289 287 284 281 279 277 275 274 274 272 268 267 269 268 265 255 255 252 253 253 252 254
298 297 297 296 297 300 303 307 310 309 306 307 307 303 294 285 283 283 280 278 277 276 272 269 268 264 263 260 254 250 250 246 246
305 301 292 293 298 304 308 311 314 321 319 319 320 318 312 302 290 288 287 286 286 293 286 278 269 266 265 265 269 254 251 265 248
320 325 316 305 310 313 321 326 327 337 337 335 335 349 341 275 312 314 308 306 283 303 309 304 294 274 264 260 259 256 252 261 260
333 347 345 325 324 326 327 335 339 344 352 351 355 346 12 115 328 347 328 311 304 299 304 306 307 301 280 263 253 254 257 254 256
321 323 324 318 326 336 339 338 340 346 360 0 7 345 334 335 344 0 350 333 329 322 328 322 320 314 293 264 254 253 256 253 248
312 310 309 312 321 328 327 331 343 344 351 360 1 348 333 334 329 355 351 349 336 329 331 327 330 334 300 265 251 267 264 253 247
291 295 301 301 307 316 318 334 332 334 341 345 351 356 358 6 339 331 342 352 4 351 340 320 319 322 319 304 245 259 243 220 206